Regional Weather Roundup
Issued by NWS Wakefield, VA

Home | Current Version | Previous Version | Graphics & Text | Print | Product List | Glossary On
Versions: 1 2 3 4 5 6 7 8 9 10 11 12 13 14 15 16 17 18 19 20 21 22 23 24 25 26 27 28 29 30 31 32 33 34 35 36 37 38 39 40 41 42 43 44 45 46 47 48 49 50
000
ASUS41 KAKQ 260010
RWRAKQ

REGIONAL WEATHER ROUNDUP
NATIONAL WEATHER SERVICE WAKEFIELD VA
800 PM EDT FRI JUL 25 2014

Note: "fair" indicates few or no clouds below 12,000 feet with no
significant weather and/or obstructions to visibility. * = Denotes
station may not report precipitation (e.g., rain,snow,etc.),
thunder or fog.

VAZ042-051-052>054-056-260100-
NORTHERN VIRGINIA

CITY           SKY/WX    TMP DP  RH WIND       PRES   REMARKS
WASH NATIONAL  MOCLDY    82  55  39 W8        30.02R
DULLES         PTCLDY    76  56  49 S3        30.02R
FORT BELVOIR   CLEAR     77  63  61 S2        30.02R
QUANTICO       PTCLDY    79  60  52 S9        30.03R
FREDERICKSBRG* CLEAR     78  67  68 S5        30.02R
STAFFORD*      CLEAR     76  63  64 CALM      30.06R
WARRENTON      CLEAR     77  68  74 SE5       30.02S
CULPEPER*      CLEAR    N/A N/A N/A CALM      30.03R
MANASSAS*      CLEAR     75  64  69 S6        30.02R
LEESBURG*      CLEAR     79  64  61 S5        30.02S
WINCHESTER     CLEAR     77  59  53 SE6       30.02R
$$

VAZ048-049-060>072-079>083-260100-
CENTRAL AND SOUTH CENTRAL VIRGINIA...AND NORTH CENTRAL NORTH CAROLINA

CITY           SKY/WX    TMP DP  RH WIND       PRES   REMARKS
RICHMOND       PTCLDY    80  61  52 S7        30.03R
CHESTERFIELD*  CLEAR    N/A N/A N/A CALM      30.05R
HANOVER        CLEAR     74  65  73 SE3       30.04R
TAPPAHANNOCK*  CLEAR     75  64  68 CALM      30.04R
CHARLOTTSVILLE CLEAR     76  63  64 S5        30.03R
ORANGE*        CLEAR     77  63  61 CALM      30.04R
LOUISA*        CLEAR     73  66  78 CALM      30.02S
FARMVILLE*     CLEAR     77  63  61 S5        30.02R
SOUTH HILL*    CLEAR     79  70  73 CALM      30.09S
ROANOKE RAPIDS PTCLDY    77  70  78 CALM      30.03S
RALEIGH        PTCLDY    79  67  66 E6        30.02S
$$

VAZ088>098-260100-
SOUTHEAST VIRGINIA

CITY           SKY/WX    TMP DP  RH WIND       PRES   REMARKS
NORFOLK        PTCLDY    76  58  53 SE8       30.04R
VIRGINIA BEACH PTCLDY    74  59  59 E5        30.03S
NORFOLK NAVAL  PTCLDY    77  60  55 SE7       30.05S
WEST POINT*    PTCLDY    80  61  51 CALM      30.05R
NEWPORT NEWS   CLEAR     78  62  57 E5        30.04R
LANGLEY AFB    CLEAR     78  60  54 S3        30.03S
FORT EUSTIS    CLEAR     78  64  62 SE3       30.02S
WILLIAMSBURG*  CLEAR     79  66  65 CALM      30.04S
FRANKLIN*      PTCLDY    77  66  69 CALM      30.04S
WAKEFIELD      CLEAR     76  68  76 CALM      30.04R
$$

VAZ020-022-025-037-045-260100-
WESTERN AND SOUTHWEST VIRGINIA

CITY           SKY/WX    TMP DP  RH WIND       PRES   REMARKS
STAUNTON*      CLEAR     76  62  62 SE3       30.06R
HOT SPRINGS VA PTCLDY    65  57  77 S7        30.18S
LYNCHBURG      PTCLDY    76  64  66 S6        30.06R
DANVILLE       PTCLDY    78  66  66 CALM      30.03S
MARTINSVILLE   CLOUDY    79  67  66 CALM      30.06S
ROANOKE        MOCLDY    77  64  64 SE12      30.06R
BLACKSBURG     CLEAR     73  66  78 E7          N/A
DUBLIN*        CLOUDY    78  66  66 CALM      30.08S
MARION*        CLEAR    N/A N/A N/A SW5       30.13S
HILLSVILLE*    MOCLDY    72  64  76 S5        30.12R
RICHLANDS*     CLEAR     75  60  60 N3        30.11F
WISE*          CLEAR     72  61  68 N3        30.12S
ABINGDON*      PTCLDY    78  60  53 NW3       30.08F
$$

MDZ021>025-VAZ099-100-260100-
SOUTHERN MARYLAND AND THE DELMARVA PENINSULA

CITY           SKY/WX    TMP DP  RH WIND       PRES   REMARKS
PATUXENT RIVER PTCLDY    75  60  59 S5        30.02R
BAY BRIDGE APT   N/A     77  52  41 S5        30.02R
LEONARDTOWN    CLEAR     72  59  64 CALM      30.05R
DOVER          CLEAR     75  58  54 SW7       30.01R
GEORGETOWN     CLEAR     74  59  59 SE9       30.04R
EASTON         CLEAR     77  57  50 CALM      30.06R
CAMBRIDGE      CLEAR     73  61  64 CALM      30.03R
SALISBURY      NOT AVBL
OCEAN CITY     CLEAR     73  64  73 S3        30.04R
WALLOPS ISLAND CLEAR     76  60  57 S3        30.04R
ACCOMACK*        N/A     73  64  73 SW3       30.04R
$$

NCZ012>017-030>032-260100-
EASTERN NORTH CAROLINA

CITY           SKY/WX    TMP DP  RH WIND       PRES   REMARKS
ELIZABETH CITY CLEAR     75  59  57 E6        30.04S
AHOSKIE*       CLEAR     76  69  78 CALM      30.04S
EDENTON*       MOCLDY    76  66  71 NE5       30.04S
CURRITUCK*     CLEAR     77  56  48 CALM      30.05F
KILL DEVIL HLS CLEAR     74  60  60 CALM      30.04S
MANTEO         NOT AVBL
CAPE HATTERAS  PTCLDY    77  69  76 NE5       30.04R
GOLDSBORO      MOCLDY    79  76  91 SE2       30.00R
WASHINGTON     MOCLDY    79  70  75 CALM      30.03R
GREENVILLE     MOCLDY    81  70  69 CALM      30.04S
NEW BERN       CLOUDY    80  71  74 CALM      30.03R
WILMINGTON     CLOUDY    79  74  84 E3        30.01R
$$

VAZ048-260100-
ELSEWHERE

CITY           SKY/WX    TMP DP  RH WIND       PRES   REMARKS
HARRISBURG PA  PTCLDY    74  58  57 CALM      30.00R
BALTIMORE      PTCLDY    78  54  43 SE6       30.01R
ANNAPOLIS      CLEAR     75  54  47 S6        30.02R
ANDREWS AFB    CLEAR     75  59  58 SE6       30.02R
WILMINGTON DE  CLEAR     77  55  46 SW7       30.02R
PHILADELPHIA   PTCLDY    80  56  43 SW10      30.00R
WILDWOOD NJ*   CLEAR     73  61  64 S7        30.03S
ATLANTIC CITY  CLEAR     73  64  73 S8        30.01S
HENDERSON NC   PTCLDY    77  64  63 SE3       30.03F
GREENSBORO     PTCLDY    79  67  66 S7        30.02S
ROCKY MOUNT    PTCLDY    77  71  82 CALM      30.03R
FAYETTEVILLE   CLEAR     80  72  76 NE3       30.00S
CHARLOTTE      PTCLDY    81  67  62 S5        30.02R
$$

VAZ100-260100-
MARINE

STATION/POSITION TIME  TEMP    WIND        PRES    WAVE   SWELL
                       AIR SEA DIR/SP/G            HT/PER HT/PER
                 (UTC) (F)     (DEG/KT/KT) (MB)    (FT/S) (FT/S)
44066 TX TWR #4  0000   73 76  210/  8/  8 1016.2R   2/ 8   2/ 8
CAPE MAY NJ      0000   73 80  160/  5/  6 1016.3S
LEWES DE         0000   75 76  240/  1/  5 1016.6R
15NM E FENWICK I 0000   75 77              1017.1R   2/ 5
OCEAN-CITY-INLET 0000   74 72  180/  3/  5 1016.6R
WACHAPREAGUE VA  0000   76 82  240/  3/  4 1017.2R
THOMAS POINT MD  0000   77 80  150/  6/  7 1017.2R
GOOSES REEF MD   0000   79     180/  4/  6 1017.1S
COVE POINT MD    0000   77     200/  6/  7 1016.7R
SOLOMONS ISLAND  0000      83                N/A
BISHOPS HEAD MD  0000   78 82  160/  4/  5 1016.5R
PINEY POINT MD   0000          320/  5/  6   N/A
POTOMAC MD       0000   78     170/  6/  8 1016.2R
CAMBRIDGE MD     0000   80 80  120/  2/  2 1016.4R
LEWISETTA VA     0000   77 80  190/  7/  8 1016.8R
RAPPAHANNOCK LGT 0000          160/  2/  3 1017.8R
STINGRAY PT      0000   77     140/  6/  8 1017.8R
YORK RVR RNG VA  0000   77     140/  6/  7 1016.6R
YORKTOWN VA      0000   78 81  160/  7/  8 1016.7F
JAMESTOWN VA     0000   79     200/  4/  6   N/A
DOMINION TERM VA 0000   79     120/  3/  4 1017.1F
KIPTOPEKE VA     0000      83  160/  5/  6   N/A
CHES BAY BRIDGE  0000   78 79  120/  5/  8 1016.7S
CAPE HENRY VA    0000   76     130/  5/  7 1016.2S
WILLOUBY STN VA  0000          100/  5/  6 1016.4F
S CRANEY ISL VA  0000          110/  7/ 12 1017.1F
CAPE HENRY BUOY  0000      77                N/A     2/ 7
1ST LANDING BUOY 0000   78     120/  8/ 10 1016.9S
CAPE CHARLES BUO 0000      77                N/A     2/ 7
OFFSHORE WE BUOY 0000      79                N/A     2/ 5
64NM E OF VA BCH 0000   76 78  320/  2/  4 1017.3R   3/ 7   2/ 7
DUCK PIER NC     0000   76 77   60/  7/  9 1016.8S
44056 DUCK FRF   0000                        N/A     2/ 5
OREGON INLET NC  0000   76 80   20/  8/ 11 1017.4F
HATTERAS NC      0000   77 81   60/  5/  6 1017.5R
DIAMOND SHLS NC  0000          VRB  6/  8  1016.2S   3/ 6   2/ 6
CAPE LOOKOUT NC  2300   78      90/  6/  7 1016.0F
$$



USA.gov is the U.S. government's official web portal to all federal, state and local government web resources and services.